Provincetown, MA

6:25 AM EST on February 08, 2016 (GMT -0500)
Provincetown Municipal

Weather History for KPVC - October, 2013

Change the Weather History Date:

Saturday, October 19, 2013

  Actual Average Record
Temperature  
Mean Temperature 58 °F -  
Max Temperature 62 °F 56 °F 70 °F (1951)
Min Temperature 53 °F 45 °F 33 °F (2001)
Degree Days  
Heating Degree Days 8    
Growing Degree Days 8 (Base 50)    
Moisture  
Dew Point 44 °F    
Average Humidity 63    
Maximum Humidity 88    
Minimum Humidity 45    
Precipitation  
Precipitation 0.02 in - - ()
Sea Level Pressure  
Sea Level Pressure 29.92 in    
Wind  
Wind Speed 9 mph (SW)    
Max Wind Speed 15 mph    
Max Gust Speed 20 mph    
Visibility 10 miles    
Events      
Averages and records for this station are not official NWS values.
T = Trace of Precipitation, MM = Missing Value Source: NWS Daily Summary

Daily Weather History Graph

Daily Weather History Graph

Search for Another Location

Airport or City:

Trip Planner

Search our weather history database for the weather conditions in past years. The results will help you decide how hot, cold, wet, or windy it might be!

Date:

Astronomy

Oct. 19, 2013 Rise Set
Actual Time 6:58 AM EDT 5:52 PM EDT
Civil Twilight 6:29 AM EDT 6:20 PM EDT
Nautical Twilight 5:57 AM EDT 6:53 PM EDT
Astronomical Twilight 5:25 AM EDT 7:25 PM EDT
Moon 6:17 PM EDT (10/19) 7:33 AM EDT (10/19)
Length of Visible Light 11h 51m
Length of Day
10h 54m
Waxing Gibbous, 99% of the Moon is Illuminated
Oct 19
Waxing Gibbous
Oct 26
Last Quarter
Nov 3
New
Nov 10
First Quarter
Nov 17
Full

Hourly Weather History & Observations

Time (EDT) Temp. Dew Point Humidity Pressure Visibility Wind Dir Wind Speed Gust Speed Precip Events Conditions
12:15 AM 57.2 °F 44.6 °F 63% 29.92 in 10.0 mi WNW 10.4 mph - N/A   Clear
12:35 AM 55.4 °F 44.6 °F 67% 29.92 in 10.0 mi West 9.2 mph - N/A   Clear
12:55 AM 55.4 °F 44.6 °F 67% 29.93 in 10.0 mi West 8.1 mph - N/A   Clear
1:15 AM 55.4 °F 44.6 °F 67% 29.93 in 10.0 mi West 9.2 mph - N/A   Clear
1:35 AM 55.4 °F 44.6 °F 67% 29.94 in 10.0 mi West 9.2 mph - N/A   Clear
1:55 AM 55.4 °F 42.8 °F 63% 29.94 in 10.0 mi West 11.5 mph - N/A   Clear
2:15 AM 55.4 °F 42.8 °F 63% 29.94 in 10.0 mi WNW 15.0 mph 19.6 mph N/A   Clear
2:35 AM 55.4 °F 42.8 °F 63% 29.94 in 10.0 mi WNW 13.8 mph - N/A   Clear
2:55 AM 55.4 °F 42.8 °F 63% 29.95 in 10.0 mi West 9.2 mph - N/A   Clear
3:15 AM 53.6 °F 44.6 °F 72% 29.95 in 10.0 mi West 11.5 mph - N/A   Clear
3:35 AM 53.6 °F 42.8 °F 67% 29.95 in 10.0 mi West 12.7 mph - N/A   Clear
3:55 AM 53.6 °F 42.8 °F 67% 29.95 in 10.0 mi West 12.7 mph - N/A   Clear
4:15 AM 53.6 °F 42.8 °F 67% 29.96 in 10.0 mi West 11.5 mph - N/A   Clear
4:35 AM 53.6 °F 42.8 °F 67% 29.96 in 10.0 mi West 12.7 mph - N/A   Clear
4:55 AM 53.6 °F 42.8 °F 67% 29.95 in 10.0 mi WNW 12.7 mph - N/A   Clear
5:15 AM 53.6 °F 42.8 °F 67% 29.96 in 10.0 mi West 10.4 mph - N/A   Clear
5:35 AM 53.6 °F 42.8 °F 67% 29.96 in 10.0 mi West 9.2 mph - N/A   Clear
5:55 AM 53.6 °F 42.8 °F 67% 29.97 in 10.0 mi West 8.1 mph - N/A   Clear
6:15 AM 53.6 °F 42.8 °F 67% 29.98 in 10.0 mi West 9.2 mph - N/A   Clear
6:35 AM 53.6 °F 42.8 °F 67% 29.97 in 10.0 mi West 9.2 mph - N/A   Clear
6:55 AM 53.6 °F 42.8 °F 67% 29.98 in 10.0 mi West 11.5 mph - N/A   Clear
7:15 AM 53.6 °F 42.8 °F 67% 29.98 in 10.0 mi West 9.2 mph - N/A   Clear
7:35 AM 53.6 °F 44.6 °F 72% 29.98 in 10.0 mi West 8.1 mph - N/A   Clear
7:55 AM 53.6 °F 44.6 °F 72% 29.98 in 10.0 mi West 6.9 mph - N/A   Clear
8:15 AM 55.4 °F 44.6 °F 67% 29.98 in 10.0 mi West 5.8 mph - N/A   Clear
8:35 AM 57.2 °F 44.6 °F 63% 30.00 in 10.0 mi West 8.1 mph - N/A   Clear
8:55 AM 57.2 °F 44.6 °F 63% 30.00 in 10.0 mi West 4.6 mph - N/A   Clear
9:15 AM 57.2 °F 46.4 °F 67% 29.99 in 10.0 mi West 8.1 mph - N/A   Clear
9:35 AM 59.0 °F 46.4 °F 63% 30.00 in 10.0 mi West 6.9 mph - N/A   Clear
9:55 AM 60.8 °F 46.4 °F 59% 30.00 in 10.0 mi West 6.9 mph - N/A   Clear
10:15 AM 60.8 °F 46.4 °F 59% 30.00 in 10.0 mi West 8.1 mph - N/A   Clear
10:35 AM 60.8 °F 44.6 °F 55% 30.00 in 10.0 mi WSW 8.1 mph - N/A   Clear
10:55 AM 60.8 °F 44.6 °F 55% 30.00 in 10.0 mi WSW 8.1 mph - N/A   Clear
11:15 AM 62.6 °F 44.6 °F 52% 29.99 in 10.0 mi WSW 8.1 mph - N/A   Clear
11:35 AM 62.6 °F 44.6 °F 52% 29.98 in 10.0 mi SW 8.1 mph - N/A   Clear
11:55 AM 60.8 °F 44.6 °F 55% 29.98 in 10.0 mi SW 8.1 mph - N/A   Clear
12:15 PM 62.6 °F 42.8 °F 48% 29.97 in 10.0 mi SW 9.2 mph - N/A   Clear
12:35 PM 62.6 °F 42.8 °F 48% 29.97 in 10.0 mi SSW 10.4 mph - N/A   Clear
12:55 PM 62.6 °F 41.0 °F 45% 29.95 in 10.0 mi SW 11.5 mph - N/A   Clear
1:15 PM 62.6 °F 44.6 °F 52% 29.95 in 10.0 mi SSW 8.1 mph - N/A   Clear
1:35 PM 60.8 °F 42.8 °F 52% 29.94 in 10.0 mi SSW 9.2 mph - N/A   Clear
1:55 PM 60.8 °F 41.0 °F 48% 29.93 in 10.0 mi SSW 8.1 mph - N/A   Clear
2:15 PM 60.8 °F 39.2 °F 45% 29.93 in 10.0 mi SSW 6.9 mph - 0.01 in   Clear
2:35 PM 60.8 °F 39.2 °F 45% 29.92 in 10.0 mi South 9.2 mph - 0.01 in   Clear
2:55 PM 62.6 °F 44.6 °F 52% 29.93 in 10.0 mi SSW 9.2 mph - 0.01 in   Clear
3:15 PM 62.6 °F 42.8 °F 48% 29.91 in 10.0 mi SSW 11.5 mph - N/A   Clear
3:35 PM 62.6 °F 42.8 °F 48% 29.92 in 10.0 mi South 10.4 mph - N/A   Clear
3:55 PM 60.8 °F 42.8 °F 52% 29.91 in 10.0 mi South 10.4 mph 16.1 mph N/A   Clear
4:15 PM 60.8 °F 42.8 °F 52% 29.91 in 10.0 mi South 9.2 mph - N/A   Clear
4:35 PM 59.0 °F 42.8 °F 55% 29.91 in 10.0 mi South 9.2 mph - N/A   Clear
4:55 PM 59.0 °F 42.8 °F 55% 29.90 in 10.0 mi South 9.2 mph - N/A   Clear
5:15 PM 59.0 °F 42.8 °F 55% 29.89 in 10.0 mi South 8.1 mph - N/A   Clear
5:35 PM 57.2 °F 44.6 °F 63% 29.89 in 10.0 mi South 6.9 mph - N/A   Clear
5:55 PM 57.2 °F 44.6 °F 63% 29.89 in 10.0 mi SSW 6.9 mph - N/A   Clear
6:15 PM 57.2 °F 44.6 °F 63% 29.88 in 10.0 mi South 6.9 mph - N/A   Clear
6:35 PM 57.2 °F 44.6 °F 63% 29.87 in 10.0 mi South 5.8 mph - N/A   Clear
6:55 PM 57.2 °F 44.6 °F 63% 29.87 in 10.0 mi South 5.8 mph - N/A   Clear
7:15 PM 57.2 °F 44.6 °F 63% 29.87 in 10.0 mi South 4.6 mph - N/A   Partly Cloudy
7:35 PM 57.2 °F 46.4 °F 67% 29.85 in 10.0 mi SSE 9.2 mph - N/A   Partly Cloudy
7:55 PM 57.2 °F 46.4 °F 67% 29.86 in 10.0 mi SSE 8.1 mph - N/A   Scattered Clouds
8:15 PM 55.4 °F 44.6 °F 67% 29.83 in 10.0 mi SE 6.9 mph - N/A   Overcast
8:35 PM 55.4 °F 42.8 °F 63% 29.84 in 10.0 mi South 5.8 mph - N/A   Mostly Cloudy
8:55 PM 57.2 °F 42.8 °F 59% 29.84 in 10.0 mi SSE 6.9 mph - N/A   Overcast
9:15 PM 55.4 °F 42.8 °F 63% 29.85 in 10.0 mi South 4.6 mph - N/A   Overcast
9:35 PM 55.4 °F 42.8 °F 63% 29.86 in 10.0 mi South 4.6 mph - N/A   Overcast
9:55 PM 55.4 °F 44.6 °F 67% 29.83 in 10.0 mi SSE 4.6 mph - N/A   Mostly Cloudy
10:15 PM 55.4 °F 46.4 °F 72% 29.83 in 10.0 mi SSE 6.9 mph - N/A   Mostly Cloudy
10:35 PM 53.6 °F 48.2 °F 82% 29.80 in 10.0 mi SSE 8.1 mph - 0.01 in   Mostly Cloudy
10:55 PM 53.6 °F 48.2 °F 82% 29.80 in 10.0 mi SSE 6.9 mph - 0.01 in   Mostly Cloudy
11:15 PM 55.4 °F 50.0 °F 82% 29.80 in 10.0 mi SSE 4.6 mph - N/A   Scattered Clouds
11:35 PM 55.4 °F 51.8 °F 88% 29.79 in 10.0 mi SSE 6.9 mph - N/A   Partly Cloudy
11:55 PM 55.4 °F 51.8 °F 88% 29.79 in 10.0 mi South 4.6 mph - N/A   Mostly Cloudy